Temperature
18 18 18 18 18 18 18 18 18 18 18 18 18 18 18 18 18 18 18 18 18 18 18 18 18 17 17 17 17 17 17 17 17 17 17 17 17 16 16 16 16 16 16
18 18 18 18 18 18 18 18 18 18 18 18 18 18 18 18 18 18 18 18 18 18 18 18 18 17 17 17 17 17 17 17 17 17 17 17 17 17 16 16 16 16 16
18 18 18 18 18 18 18 18 18 18 18 18 18 18 18 18 18 18 18 18 18 18 18 18 18 17 17 17 17 17 17 17 17 17 17 17 17 17 16 16 16 16 16
18 18 18 18 18 18 18 18 18 18 18 18 18 18 18 18 18 18 18 18 18 18 18 18 18 17 17 17 17 17 17 17 17 17 17 17 17 17 16 16 16 16 16
18 18 18 18 18 18 18 18 18 18 18 18 18 18 18 18 18 18 18 18 17 17 17 17 17 17 17 17 17 17 17 17 17 17 17 17 17 17 16 16 16 16 16
18 18 18 18 18 18 18 18 18 18 18 18 18 18 18 18 18 18 18 18 17 17 17 17 17 17 17 17 17 17 17 17 17 17 17 17 17 16 16 16 16 16 16
18 18 18 18 18 18 18 18 18 18 18 18 18 18 18 18 18 18 18 17 17 17 17 17 17 17 17 17 17 17 17 17 17 17 17 17 17 16 16 16 16 16 16
18 18 18 18 18 18 18 18 18 18 18 18 18 18 18 18 18 18 18 17 17 17 17 17 17 17 17 17 17 17 17 17 17 17 16 16 16 16 16 16 16 16 16
18 18 18 18 18 18 18 18 18 18 18 18 18 18 18 18 18 18 18 18 17 17 17 17 17 17 16 16 16 16 16 16 16 16 16 16 16 16 16 16 16 16 16
18 18 18 18 18 18 18 18 18 18 18 18 18 18 18 18 18 17 18 17 17 17 17 17 17 16 16 16 16 16 16 16 16 16 16 16 16 16 16 16 16 15 15
18 18 18 18 18 18 18 18 18 18 18 18 18 18 18 18 18 17 17 17 17 17 17 17 17 16 16 16 16 16 16 16 16 16 16 16 16 16 15 15 15 15 15
19 18 18 18 18 18 18 18 18 18 18 18 18 18 18 18 18 18 18 17 17 17 17 17 17 16 16 16 16 16 16 16 16 16 16 16 16 15 15 15 15 15 15
19 19 18 18 18 18 18 18 18 18 18 18 18 18 18 18 18 18 18 17 17 17 17 17 17 17 16 16 16 16 16 16 16 16 16 16 16 15 15 15 15 15 15
19 19 19 18 18 18 18 18 18 18 18 18 18 18 18 18 18 18 18 17 17 17 17 17 17 17 16 16 16 16 16 16 16 16 16 16 15 15 15 15 15 15 15
19 19 19 19 18 18 18 18 18 18 17 17 18 18 18 18 18 18 18 18 17 17 17 17 17 17 16 16 16 16 16 16 15 15 15 15 15 15 15 15 15 14 14
19 19 19 18 18 18 18 17 17 17 17 17 17 17 17 17 17 17 18 18 17 17 17 17 17 17 16 16 16 16 15 15 15 15 15 15 15 15 15 14 14 14 14
19 18 18 18 18 18 18 17 17 17 17 17 17 17 17 17 17 17 17 17 17 17 17 17 17 17 16 16 16 16 15 15 15 15 15 15 15 14 14 14 14 14 14
18 18 18 18 18 18 18 17 17 17 17 17 17 17 17 17 17 17 17 17 17 17 17 16 16 16 16 16 16 15 15 15 15 15 15 15 14 14 14 14 14 13 13
18 18 18 18 18 17 17 17 17 17 17 17 17 17 17 17 17 17 17 17 17 17 16 16 16 16 16 16 15 15 15 14 14 14 14 14 14 14 13 13 13 13 13
18 18 18 18 17 17 17 17 17 17 17 17 17 17 17 17 17 17 17 17 16 16 16 16 16 16 15 15 15 15 14 14 14 14 14 14 14 13 13 13 13 13 13
18 18 18 17 17 17 17 17 17 17 17 17 17 17 17 17 17 16 16 16 16 16 16 16 16 16 15 15 15 15 14 14 14 14 14 14 13 13 13 13 13 13 13
18 18 17 17 17 17 17 17 17 17 17 17 16 16 16 16 16 16 16 16 16 16 16 16 16 15 15 15 15 15 14 14 14 14 14 13 13 13 13 13 13 13 12
17 17 17 17 17 17 17 17 17 16 16 16 16 16 16 16 16 16 16 16 16 16 15 15 15 15 15 15 15 15 14 14 14 14 13 13 13 13 13 13 13 13 12
17 17 17 17 16 16 16 16 16 16 16 16 16 16 16 16 16 16 15 15 15 15 15 15 15 15 15 15 14 14 14 14 14 13 13 13 13 12 12 13 12 12 12
17 16 16 16 16 16 16 16 16 16 15 16 16 16 15 15 15 15 15 15 15 15 15 15 15 15 15 14 14 14 14 13 13 13 13 13 12 12 12 12 12 12 12
16 16 16 16 16 16 16 16 16 15 15 15 15 15 15 15 15 15 14 14 14 15 14 14 14 14 14 14 14 14 13 13 13 13 13 13 12 12 12 12 12 12 12
Wind_Speed
3 3 3 3 4 5 5 3 3 2 2 1 0 1 1 1 4 8 11 14 14 13 12 11 11 10 10 11 11 11 11 11 10 10 9 9 9 9 9 8 8 8 7
4 3 3 2 2 3 4 4 3 2 2 1 1 0 1 2 4 6 9 11 13 12 11 11 10 10 10 11 11 12 12 12 12 11 11 11 10 10 9 9 9 8 8
4 3 3 2 2 3 3 2 2 2 3 2 2 1 1 1 3 4 7 8 10 11 12 11 10 9 9 9 9 10 10 11 12 12 12 12 12 11 11 10 10 9 9
3 2 2 2 2 3 3 2 2 2 2 1 1 1 1 1 1 3 4 6 8 9 11 12 11 10 9 9 9 9 9 10 11 11 12 12 12 13 12 12 11 11 11
4 2 2 2 2 2 1 2 2 1 2 2 2 2 2 2 2 2 2 4 6 8 10 12 12 10 9 8 8 8 8 8 8 9 10 10 11 12 13 14 14 13 12
5 4 2 2 2 1 1 1 2 1 1 1 1 2 2 3 3 2 2 3 5 7 8 9 11 9 9 7 7 7 7 7 7 8 8 9 9 10 10 11 13 13 13
5 4 2 3 2 1 2 2 2 2 2 2 1 1 1 2 3 2 2 2 3 5 7 8 9 9 8 8 8 8 7 7 7 7 8 8 8 9 8 8 9 10 11
5 5 4 3 3 2 3 3 2 2 2 3 2 2 1 1 2 3 3 3 3 2 4 7 9 9 8 8 8 9 8 8 9 8 9 9 8 9 9 9 9 9 10
5 3 4 3 3 4 3 4 4 4 3 3 3 2 2 2 2 2 3 3 3 3 3 4 7 9 9 8 8 9 10 10 9 9 8 8 8 8 9 10 9 9 9
4 4 4 4 3 3 3 4 4 4 4 4 3 4 3 2 1 1 2 3 3 3 3 4 4 7 8 9 8 8 10 10 10 9 9 9 9 9 9 9 9 9 9
4 4 4 4 3 3 3 3 3 4 4 4 3 3 3 3 3 2 2 3 3 3 3 3 2 4 7 8 8 8 11 11 10 9 9 9 9 9 9 8 8 8 8
4 5 5 4 4 3 3 3 3 4 3 3 3 3 3 3 3 3 3 3 3 3 4 3 3 3 6 7 7 8 10 11 11 10 9 8 8 8 8 8 7 7 7
4 4 4 4 3 3 3 3 3 3 4 4 4 4 4 4 3 3 3 3 2 2 3 4 4 4 5 7 7 10 10 11 10 9 8 8 8 7 7 7 7 6 5
3 3 4 4 4 4 4 3 4 4 4 4 5 5 4 4 3 4 3 3 2 2 2 3 4 4 5 6 7 9 8 11 11 9 8 7 7 7 6 7 6 5 5
3 4 4 4 4 4 4 3 3 4 4 5 5 5 5 4 3 3 3 3 3 3 3 3 3 5 6 7 10 8 7 10 11 10 9 8 7 7 6 6 6 5 5
2 3 3 4 4 4 5 4 4 4 4 4 4 4 5 4 4 4 4 3 3 3 3 2 2 4 5 5 9 8 8 10 11 11 10 9 8 8 7 7 6 6 5
3 3 3 3 4 4 4 4 5 5 4 4 4 4 5 5 4 4 3 3 3 3 3 2 1 3 3 3 5 7 8 8 9 12 12 11 10 9 8 7 7 6 6
3 3 3 3 4 4 4 5 6 5 4 5 4 5 5 5 5 4 4 4 3 3 3 3 3 3 4 4 5 5 6 7 8 11 14 13 11 10 9 8 7 7 6
3 3 3 3 4 3 3 4 4 4 4 4 4 5 5 5 5 4 5 4 3 4 4 4 4 3 3 4 4 4 4 3 5 8 11 11 11 10 9 8 8 7 7
4 4 4 4 4 4 4 4 4 5 5 5 5 5 5 5 5 5 5 4 4 4 4 4 4 4 3 4 4 4 3 3 3 5 6 8 10 10 9 9 8 8 8
5 4 4 4 4 5 5 4 5 5 5 5 5 4 4 4 3 3 4 2 3 4 4 4 5 4 3 3 4 3 4 3 3 3 4 5 6 6 7 9 9 10 10
4 4 4 4 5 5 4 5 4 4 4 4 5 4 4 4 4 4 3 2 2 4 4 4 4 4 4 3 3 3 3 3 3 3 4 5 6 6 6 8 10 12 12
4 4 4 4 5 4 4 3 4 4 5 5 5 4 5 4 4 3 4 4 4 5 6 4 5 5 4 3 3 4 4 4 4 3 4 4 4 5 6 8 12 14 14
4 4 4 4 4 4 4 4 4 5 5 5 5 4 4 3 3 2 2 3 4 4 5 5 3 3 2 1 2 4 5 5 4 3 3 3 4 4 4 6 12 14 14
3 4 4 4 4 3 4 4 4 4 4 5 6 5 4 4 3 3 4 4 4 4 3 2 3 3 3 3 3 3 4 4 4 3 4 3 3 3 3 3 8 14 13
3 4 4 4 4 4 5 5 5 4 4 5 4 4 4 5 5 5 5 5 6 5 4 4 4 5 6 6 7 6 5 4 3 3 3 3 3 2 2 3 4 8 9
Wind_Direction
135 132 142 163 173 156 159 171 187 165 143 113 133 131 110 102 125 128 148 163 165 171 178 181 186 191 194 196 198 199 199 198 198 197 197 199 200 200 200 200 204 207 210
137 141 142 146 156 154 157 169 171 145 147 149 135 194 157 149 128 145 154 170 177 179 184 187 191 197 199 201 204 207 207 206 206 206 206 207 208 208 209 210 214 214 216
135 140 141 161 169 169 154 171 160 159 165 165 163 179 164 169 149 158 157 164 173 182 183 185 189 193 196 199 201 205 207 209 211 211 212 213 213 214 214 214 218 220 220
154 167 159 158 168 181 167 172 184 165 147 154 169 177 148 149 167 177 172 167 168 177 184 185 185 189 192 197 204 206 209 211 212 213 213 215 215 215 215 217 221 224 224
162 184 144 131 193 182 154 187 137 149 148 167 183 177 172 167 174 198 182 168 168 170 174 183 185 188 190 193 200 204 205 206 207 209 212 217 220 220 220 222 225 227 228
177 186 173 176 208 158 145 134 113 138 173 189 211 173 183 187 183 187 196 176 171 174 170 175 180 186 187 189 194 197 199 197 199 204 209 213 219 222 222 225 227 227 227
180 178 179 164 188 176 174 181 161 181 195 177 159 174 242 204 189 182 196 181 182 173 169 171 172 177 183 197 205 204 203 204 203 206 209 211 216 219 218 222 225 225 226
190 191 186 198 192 193 200 192 188 211 212 183 174 175 201 210 229 210 190 192 197 176 172 181 175 175 181 181 195 204 209 212 212 215 218 219 220 221 221 223 227 227 230
199 209 184 206 208 209 203 201 206 209 219 215 201 198 200 207 192 198 206 195 192 193 191 170 174 178 184 178 183 199 206 210 213 216 217 219 220 220 221 223 225 227 230
195 202 196 205 229 224 218 216 204 215 219 230 223 220 215 213 194 198 207 194 196 196 199 206 180 177 184 179 178 186 199 206 213 219 221 223 225 226 227 230 232 230 231
196 200 199 199 216 222 228 223 217 222 226 230 232 220 215 224 224 211 215 198 195 196 193 200 173 166 180 178 180 186 190 198 207 215 218 221 224 225 225 228 231 233 234
201 200 199 201 212 215 226 225 226 217 226 236 243 235 213 216 216 209 216 212 203 203 197 200 191 173 174 173 183 184 183 193 202 210 215 218 219 219 222 224 227 231 231
195 200 201 198 206 211 219 219 229 228 227 234 241 244 236 234 227 216 213 222 216 203 197 194 188 171 176 169 171 175 180 185 192 198 204 209 212 215 219 216 218 221 222
191 177 191 204 205 215 224 218 226 231 231 235 243 246 246 244 233 222 211 207 228 228 202 202 174 167 169 161 160 169 175 183 187 191 196 202 206 209 211 204 205 210 213
194 183 197 209 214 223 238 229 235 239 235 231 237 239 241 241 231 233 229 214 210 227 232 204 184 170 159 151 160 172 171 184 188 189 193 197 199 201 201 200 199 199 198
193 192 202 211 217 228 236 234 241 238 237 242 244 250 246 249 234 228 236 237 220 215 240 212 195 169 161 164 169 177 181 182 188 189 193 195 195 195 195 193 194 194 193
190 204 214 220 223 230 236 237 241 242 240 250 254 250 246 254 253 244 239 235 229 217 228 236 199 162 162 171 165 185 187 182 185 194 195 194 193 191 190 191 194 193 193
198 208 212 226 239 236 232 236 244 246 241 244 252 255 251 245 240 249 246 238 231 220 214 230 226 199 198 189 184 199 201 196 185 196 195 192 190 190 190 193 195 195 195
205 219 218 230 246 245 238 239 243 250 249 249 247 249 249 245 241 243 241 241 234 229 210 220 231 216 209 199 192 212 212 189 198 188 187 190 189 189 190 190 192 193 195
206 216 227 233 241 246 248 253 247 248 247 250 251 248 248 245 242 240 239 235 237 238 226 225 233 225 203 194 193 205 205 207 216 192 176 183 189 190 191 194 196 197 199
213 214 225 236 241 243 244 249 250 245 246 249 250 242 237 234 235 238 243 241 237 237 236 232 231 228 213 195 206 207 211 206 216 199 179 184 180 187 195 201 205 203 199
215 218 223 233 243 247 242 234 241 252 251 251 247 238 233 221 211 204 207 219 228 235 243 246 243 229 218 209 206 214 209 214 226 197 200 210 188 192 193 195 201 198 197
221 230 231 232 239 243 229 230 241 245 251 252 249 244 249 241 208 202 202 209 222 233 235 246 253 250 240 220 211 222 226 228 233 206 199 222 198 200 195 195 192 194 198
231 238 238 235 238 246 228 228 245 246 252 251 247 246 246 249 239 214 223 234 234 239 241 235 242 262 263 248 219 225 230 231 239 214 185 217 206 208 193 182 191 192 197
244 245 244 242 236 240 237 234 234 252 249 249 247 243 230 223 209 205 219 238 242 242 241 205 203 216 224 229 223 228 233 228 232 217 201 214 200 200 196 198 193 193 195
250 254 246 246 234 226 225 226 229 253 254 254 253 245 229 204 192 203 226 231 239 240 229 229 229 232 230 227 221 219 229 233 240 218 194 200 203 191 209 199 186 191 197
Height
1539 1541 1542 1544 1545 1546 1547 1549 1551 1552 1554 1555 1557 1558 1559 1560 1560 1561 1562 1562 1563 1564 1565 1565 1566 1567 1568 1569 1570 1570 1571 1572 1573 1574 1575 1576 1577 1578 1578 1579 1580 1581 1582
1540 1542 1543 1544 1546 1547 1548 1550 1551 1552 1554 1555 1556 1558 1559 1560 1560 1561 1561 1562 1563 1563 1564 1565 1565 1566 1567 1567 1568 1569 1570 1571 1572 1573 1573 1574 1575 1576 1577 1577 1578 1579 1580
1541 1542 1543 1545 1546 1547 1548 1550 1551 1552 1553 1555 1556 1557 1558 1559 1560 1560 1561 1561 1561 1562 1563 1563 1564 1565 1565 1566 1567 1568 1569 1569 1570 1571 1571 1572 1573 1574 1575 1575 1576 1577 1578
1541 1542 1543 1544 1546 1547 1548 1550 1551 1552 1553 1554 1555 1556 1557 1558 1559 1560 1560 1560 1560 1561 1561 1562 1563 1563 1564 1564 1565 1566 1567 1567 1568 1569 1569 1570 1571 1572 1572 1573 1574 1575 1575
1541 1542 1543 1545 1546 1547 1548 1549 1550 1552 1552 1553 1554 1555 1556 1557 1558 1558 1559 1559 1559 1559 1560 1561 1561 1562 1562 1563 1563 1564 1564 1565 1566 1566 1567 1567 1568 1569 1570 1571 1571 1572 1573
1541 1542 1543 1544 1545 1547 1548 1549 1550 1551 1552 1553 1554 1555 1555 1556 1556 1557 1557 1558 1558 1558 1559 1559 1560 1560 1561 1561 1561 1562 1562 1562 1563 1564 1564 1565 1565 1566 1567 1568 1568 1569 1570
1540 1541 1542 1543 1545 1546 1547 1548 1549 1550 1551 1552 1553 1553 1554 1554 1555 1555 1556 1556 1557 1557 1557 1558 1558 1558 1558 1559 1559 1559 1560 1560 1561 1561 1562 1562 1563 1563 1564 1565 1565 1566 1567
1540 1541 1541 1543 1544 1545 1546 1547 1547 1548 1550 1551 1551 1552 1553 1554 1553 1553 1554 1554 1555 1555 1556 1556 1556 1556 1556 1556 1556 1557 1557 1557 1558 1558 1559 1560 1560 1561 1561 1561 1562 1563 1563
1539 1540 1541 1542 1543 1544 1544 1545 1546 1547 1547 1549 1550 1551 1551 1550 1551 1552 1552 1552 1553 1553 1554 1554 1554 1554 1554 1554 1554 1554 1554 1555 1555 1556 1556 1557 1557 1558 1558 1559 1559 1559 1560
1538 1539 1540 1540 1541 1542 1543 1543 1544 1545 1545 1546 1547 1548 1549 1549 1550 1550 1550 1550 1551 1551 1552 1552 1552 1552 1552 1552 1551 1552 1552 1552 1553 1553 1554 1554 1554 1555 1555 1555 1556 1556 1556
1537 1537 1538 1539 1539 1540 1541 1541 1542 1542 1543 1544 1545 1545 1546 1547 1547 1548 1548 1549 1549 1549 1550 1550 1550 1549 1549 1549 1549 1549 1550 1550 1550 1551 1551 1551 1552 1552 1552 1552 1553 1553 1553
1535 1536 1536 1537 1537 1538 1538 1539 1539 1540 1541 1541 1542 1543 1544 1544 1544 1545 1546 1546 1547 1547 1548 1547 1547 1547 1547 1547 1547 1547 1547 1548 1548 1548 1548 1549 1549 1549 1549 1549 1549 1549 1550
1533 1534 1535 1535 1535 1536 1536 1537 1537 1538 1538 1539 1540 1540 1541 1541 1542 1543 1544 1544 1545 1545 1545 1545 1545 1545 1545 1545 1545 1545 1545 1545 1546 1546 1546 1546 1546 1546 1546 1546 1546 1546 1547
1531 1532 1532 1533 1533 1534 1534 1534 1535 1535 1536 1536 1537 1537 1538 1538 1539 1540 1541 1542 1542 1543 1543 1543 1543 1542 1543 1542 1542 1542 1543 1543 1543 1543 1543 1543 1543 1543 1543 1543 1544 1544 1544
1529 1529 1530 1530 1531 1531 1531 1532 1532 1532 1533 1533 1534 1534 1535 1535 1536 1537 1538 1539 1540 1540 1540 1540 1541 1540 1540 1540 1540 1540 1540 1540 1541 1541 1541 1541 1541 1541 1541 1541 1541 1541 1541
1526 1527 1527 1527 1528 1528 1529 1529 1529 1529 1530 1530 1530 1531 1531 1532 1533 1534 1535 1535 1536 1537 1537 1538 1538 1538 1538 1538 1538 1538 1537 1538 1538 1538 1538 1538 1538 1538 1538 1538 1538 1538 1538
1523 1524 1524 1524 1525 1525 1526 1526 1526 1527 1527 1527 1527 1527 1527 1528 1529 1530 1531 1532 1533 1533 1534 1534 1535 1536 1536 1536 1536 1535 1535 1535 1535 1535 1535 1535 1535 1535 1535 1535 1535 1535 1534
1520 1521 1521 1521 1522 1522 1522 1523 1523 1523 1524 1523 1523 1523 1523 1524 1525 1526 1528 1528 1529 1530 1531 1530 1532 1533 1533 1533 1533 1533 1533 1532 1532 1532 1532 1532 1532 1532 1532 1532 1531 1531 1531
1517 1518 1518 1518 1519 1519 1519 1519 1519 1519 1520 1520 1520 1519 1520 1521 1521 1522 1524 1525 1526 1527 1527 1528 1528 1529 1530 1530 1530 1530 1530 1529 1529 1529 1529 1529 1529 1529 1529 1528 1528 1528 1527
1513 1514 1514 1515 1515 1515 1515 1515 1516 1515 1515 1515 1516 1516 1516 1516 1517 1518 1519 1520 1522 1523 1524 1524 1524 1525 1525 1526 1526 1526 1526 1526 1526 1526 1526 1525 1525 1525 1525 1525 1525 1524 1524
1510 1511 1511 1511 1512 1512 1512 1512 1512 1512 1512 1512 1512 1512 1512 1512 1513 1514 1515 1516 1517 1518 1519 1520 1520 1521 1521 1521 1521 1522 1522 1522 1522 1523 1522 1522 1521 1521 1521 1521 1521 1521 1521
1506 1507 1507 1508 1508 1508 1508 1508 1508 1508 1508 1508 1508 1508 1508 1509 1509 1510 1511 1512 1513 1514 1514 1515 1516 1516 1516 1517 1517 1518 1518 1518 1518 1519 1518 1518 1518 1518 1518 1518 1518 1518 1518
1503 1503 1504 1504 1504 1504 1504 1504 1504 1504 1504 1504 1504 1504 1504 1505 1505 1506 1506 1507 1508 1509 1510 1511 1511 1511 1511 1512 1513 1513 1513 1513 1513 1514 1515 1514 1515 1514 1514 1514 1515 1515 1515
1499 1499 1500 1500 1500 1500 1500 1500 1500 1500 1500 1500 1500 1500 1500 1500 1501 1501 1502 1503 1503 1504 1505 1505 1506 1506 1507 1507 1508 1509 1509 1509 1510 1510 1510 1510 1510 1510 1511 1510 1511 1511 1511
1495 1495 1496 1496 1496 1496 1496 1496 1496 1495 1495 1495 1495 1495 1496 1496 1496 1497 1497 1498 1499 1499 1500 1501 1501 1501 1502 1502 1503 1504 1504 1505 1505 1504 1506 1506 1506 1506 1507 1506 1507 1507 1508
1491 1492 1492 1492 1492 1492 1492 1492 1491 1491 1491 1491 1491 1491 1491 1491 1492 1492 1493 1493 1493 1494 1495 1495 1496 1496 1497 1497 1498 1499 1499 1500 1500 1500 1501 1502 1502 1503 1503 1503 1503 1503 1504